Theta_e
309 317 316 311 311 309 307 306 307 307 306 306 306 305 306 305 305 306 305 306 304 304 307 307 307 307 307 308 308 309 308 308 310 310 312 310 309 316 319 316 315 315 316 316 317 323 330 336 338 339 341 341 342 342 342 341 340 340 338 338 338 337 339 340 339 339 339 338 337 337 336 336 336 335 334 333 331 330 331 330 330 329 329 329 330 332
314 318 314 310 310 308 307 306 306 306 305 305 306 305 306 305 305 306 305 307 305 304 308 309 307 307 307 308 309 309 308 309 310 310 311 310 309 314 316 316 314 313 312 313 314 314 318 330 337 338 340 341 342 342 342 341 340 340 339 338 337 338 340 340 339 339 339 339 338 337 337 337 337 336 336 335 333 331 330 330 330 330 331 332 332 333
320 320 314 310 309 308 309 306 306 308 307 306 306 306 308 308 307 308 308 307 306 306 310 310 307 306 307 308 309 310 309 311 312 311 312 312 312 314 316 316 314 313 313 313 314 313 313 321 333 338 339 340 341 341 342 342 341 340 339 337 335 337 339 340 340 339 339 339 338 338 337 338 338 338 337 337 336 334 332 330 329 329 331 332 333 334
320 322 315 311 311 310 310 311 310 313 312 309 307 308 310 309 307 309 310 308 307 307 307 308 308 308 310 310 310 312 311 311 314 314 314 314 313 313 314 314 313 314 315 314 315 316 314 319 329 336 338 338 339 340 341 341 341 340 338 337 334 335 337 339 340 340 340 340 339 339 338 338 338 338 338 338 337 336 335 334 332 329 328 329 331 332
317 316 312 313 314 310 310 315 314 314 316 314 311 309 310 310 307 308 309 307 310 311 308 308 311 313 316 313 310 314 314 311 311 310 311 312 310 310 313 314 315 314 314 314 315 316 317 322 329 333 336 338 338 339 341 340 341 340 338 337 335 334 336 338 340 340 340 340 340 339 339 339 339 339 339 339 338 338 337 336 335 332 327 325 325 325
316 313 311 313 314 311 311 316 315 311 314 318 316 312 309 308 308 307 309 310 315 318 313 310 313 315 316 313 311 313 313 309 308 309 309 310 308 308 311 314 315 314 312 312 312 313 315 319 326 333 335 337 339 339 340 340 340 340 339 338 337 336 336 337 339 340 340 340 340 339 339 339 339 339 339 339 339 339 337 337 337 334 329 326 324 323
315 312 312 312 312 314 314 314 313 310 314 317 313 309 308 309 309 309 310 311 314 317 313 310 314 315 312 311 312 312 312 309 308 309 309 308 307 307 310 313 313 312 311 310 309 310 311 312 322 333 335 336 339 339 340 341 341 341 340 339 338 338 338 337 337 338 339 339 340 340 339 339 339 339 340 340 339 339 338 337 338 336 333 330 329 328
314 314 314 313 314 316 315 314 312 310 313 315 310 308 311 311 310 311 309 310 313 313 312 309 309 313 311 309 311 310 309 310 310 309 309 307 306 307 309 309 309 309 309 309 308 309 309 308 312 323 330 335 339 338 339 341 341 342 340 340 340 339 338 337 336 337 338 339 340 340 340 340 340 339 339 340 339 339 338 338 338 338 336 334 332 332
313 314 313 313 316 316 313 313 311 309 312 313 310 310 311 310 311 311 309 312 313 311 314 311 306 310 312 309 310 311 308 309 310 308 307 307 307 308 308 307 308 308 308 308 308 308 309 307 306 309 317 327 337 340 340 340 341 342 341 341 340 339 338 336 336 337 338 339 340 340 340 339 340 340 339 339 339 339 339 338 339 339 338 337 335 334
312 313 311 312 315 314 312 312 311 311 313 311 310 311 311 310 312 312 310 312 313 312 315 312 306 308 311 309 311 313 310 308 308 306 306 307 307 307 307 307 307 307 307 307 307 308 307 305 305 306 308 314 328 338 341 340 342 342 342 341 341 340 339 337 337 338 338 340 340 339 340 340 340 340 339 339 339 339 339 338 338 339 339 338 337 336
312 313 312 312 314 312 311 312 310 310 311 311 313 314 313 313 316 318 315 311 312 315 314 310 307 307 310 311 310 309 308 306 306 306 306 306 306 306 306 306 306 306 306 306 306 307 306 306 306 306 306 307 314 330 340 340 341 342 342 342 341 340 340 339 338 339 339 340 340 339 339 340 339 340 339 339 339 338 338 338 338 338 338 338 338 337
316 317 313 313 315 312 311 313 312 310 310 313 314 315 315 316 319 321 319 315 315 316 312 308 308 308 309 313 311 308 307 306 307 306 306 305 305 305 305 305 306 305 305 306 306 307 309 310 310 306 306 306 307 319 335 340 339 341 342 341 341 340 340 340 340 339 340 340 340 340 339 339 340 340 339 339 338 338 338 338 338 338 338 337 337 337
320 318 311 312 315 312 313 315 314 312 311 313 315 316 318 317 319 320 318 317 317 313 309 307 309 310 310 311 310 309 309 307 307 306 306 306 305 306 305 305 305 304 305 305 306 308 311 314 315 310 307 308 307 311 324 337 339 339 341 341 341 341 340 341 341 340 340 340 340 340 339 340 340 340 340 339 339 338 338 337 337 337 337 337 336 337
320 318 314 314 315 312 313 315 315 315 313 313 314 316 318 316 318 319 316 315 314 313 310 307 309 311 311 312 312 310 308 307 306 306 306 306 306 306 306 305 305 305 306 306 306 309 312 314 314 311 309 310 310 309 315 331 339 339 340 341 341 342 341 341 341 341 340 340 340 340 340 340 340 339 339 339 339 339 338 337 337 337 337 337 337 337
319 320 317 314 314 313 313 313 313 313 314 315 313 314 317 316 316 317 316 315 315 314 311 309 310 312 312 313 312 309 307 306 307 307 307 308 308 308 307 307 308 308 308 307 308 310 312 313 311 310 310 311 313 312 311 322 338 340 339 341 341 341 341 341 341 341 341 340 340 340 340 339 339 340 340 340 339 339 338 337 336 336 336 337 337 337
316 319 318 314 313 313 312 313 312 313 317 317 313 313 316 315 314 314 314 313 312 313 314 312 312 312 311 311 309 307 308 308 309 309 309 310 310 309 310 309 309 309 309 308 309 309 310 311 309 309 310 311 314 317 314 316 332 341 339 339 341 341 341 341 341 341 341 340 340 340 339 339 339 340 340 339 339 338 338 338 337 336 336 336 336 336
317 319 318 314 314 313 312 314 312 313 317 317 313 314 313 310 310 313 313 311 310 313 314 312 312 311 310 310 308 308 311 310 310 311 310 310 310 310 310 310 310 310 309 309 309 309 309 310 309 309 310 311 313 318 319 317 324 338 342 339 339 340 340 341 341 341 341 341 341 340 340 339 339 339 339 339 338 338 338 337 337 337 336 336 336 335
316 319 318 314 315 314 311 313 312 311 315 317 316 315 313 311 311 312 313 313 312 314 313 310 311 311 309 310 310 310 312 312 311 311 310 310 310 309 310 309 309 309 309 309 309 309 309 309 309 309 309 311 311 315 323 325 322 330 340 341 339 339 339 340 341 340 341 341 340 340 340 339 339 339 339 339 339 338 337 337 337 336 336 336 336 335
314 319 320 315 314 314 312 315 317 314 313 315 317 316 315 316 315 312 313 314 313 314 314 310 309 310 308 309 311 312 312 312 311 311 310 310 309 309 309 308 309 309 309 309 309 310 310 309 309 309 309 310 311 313 324 333 330 327 335 341 341 340 339 339 340 340 340 341 340 340 340 340 340 339 339 339 339 338 337 337 336 336 336 336 335 335
315 317 321 317 314 316 317 320 321 318 316 317 319 318 316 315 315 313 312 313 313 314 314 312 310 310 309 307 311 313 312 311 311 311 310 310 309 309 309 308 308 308 309 309 309 310 310 309 309 310 310 310 311 313 322 336 339 333 334 340 342 341 340 339 340 340 340 341 340 340 340 340 340 340 339 339 338 338 337 337 336 336 336 335 335 334
315 315 319 319 316 318 319 319 320 319 318 319 319 317 316 316 315 314 313 311 311 313 313 313 313 312 308 308 312 313 312 311 311 310 310 309 309 308 308 308 308 308 309 309 309 310 310 310 310 310 310 310 310 312 316 329 340 341 338 341 343 343 342 341 340 341 341 341 341 340 340 340 339 338 338 337 337 337 337 337 336 336 336 335 335 334
317 315 318 320 318 319 317 314 317 318 316 317 318 317 317 317 316 317 316 311 309 311 311 311 313 311 308 311 314 313 313 312 311 310 310 309 309 309 308 309 309 309 309 309 309 310 310 310 310 310 310 310 310 311 312 318 332 342 342 341 343 343 342 342 341 341 341 341 340 340 339 339 338 337 336 335 335 336 336 336 336 336 336 335 335 334
318 317 319 320 318 317 315 313 315 317 316 316 318 317 317 317 316 317 317 314 311 311 310 311 313 312 310 314 316 315 314 313 311 310 309 308 308 309 309 309 309 309 310 310 310 310 311 311 311 311 310 310 310 311 311 313 321 335 341 340 340 341 341 342 341 340 340 340 339 339 338 338 337 336 336 336 336 336 335 335 336 336 336 336 335 335
317 318 319 320 319 316 314 314 314 316 318 318 317 317 316 316 316 316 316 315 314 314 313 313 315 314 314 317 317 315 314 313 312 311 309 309 309 309 309 309 310 310 311 311 311 311 311 311 311 311 310 310 310 310 311 311 314 325 336 338 338 339 340 340 340 339 339 339 339 339 338 337 336 335 336 337 337 336 336 336 337 337 336 336 336 335
316 318 318 318 319 318 317 317 316 316 318 318 317 317 316 314 314 315 316 315 316 316 315 315 317 317 317 316 315 314 314 313 312 311 310 310 310 309 310 310 310 311 311 312 312 312 312 312 312 312 311 310 310 310 311 312 312 318 330 336 337 338 339 338 338 338 337 336 337 336 335 335 335 335 336 337 335 335 336 337 337 337 337 337 336 336
316 316 317 319 320 320 319 319 318 318 317 316 317 316 315 314 314 315 316 316 317 317 315 316 317 317 316 315 314 314 313 311 310 310 310 310 310 310 309 309 310 310 310 311 311 312 313 313 312 312 311 311 311 311 311 312 312 313 323 333 336 336 336 337 337 336 335 334 334 334 334 335 336 336 337 337 336 336 337 338 338 337 337 337 337 337
318 315 317 320 320 319 319 318 317 317 317 316 316 315 314 314 313 314 316 317 317 316 316 317 316 316 316 315 314 313 312 311 310 310 310 309 309 309 308 308 309 309 309 309 310 311 312 313 313 312 312 311 311 312 311 312 312 312 316 327 335 337 335 336 336 335 334 334 333 333 334 335 336 337 338 338 337 337 337 338 338 338 338 338 337 337
318 316 318 319 319 319 318 318 315 314 315 316 316 315 315 315 314 314 316 316 316 316 317 316 315 316 315 314 313 313 313 313 311 310 311 310 308 308 307 307 308 308 308 308 309 310 311 313 313 313 312 311 311 312 312 312 312 312 313 319 329 337 338 337 336 336 335 335 334 334 334 335 336 337 337 337 337 337 338 338 338 338 338 338 338 337
320 318 316 315 320 320 317 317 316 314 315 316 317 316 315 315 315 314 315 315 315 316 316 315 314 315 315 313 313 314 314 313 312 311 312 311 309 308 307 307 308 307 307 308 308 308 310 311 312 313 312 312 312 312 312 312 312 312 312 314 321 331 337 339 338 337 336 336 336 336 336 336 337 337 337 337 337 338 338 338 338 338 338 338 338 338
318 319 317 315 318 318 315 317 318 316 316 317 317 316 315 315 315 315 314 314 314 316 315 314 315 315 314 314 314 314 313 313 313 312 312 310 309 309 307 307 308 307 306 307 307 307 309 310 311 312 312 312 312 312 312 312 311 311 312 312 315 322 331 337 338 338 338 337 337 337 337 337 337 338 338 338 338 338 338 338 338 339 338 338 338 338
313 317 317 314 317 318 315 316 316 315 316 317 317 316 315 315 314 314 314 314 314 315 314 314 315 314 313 314 313 313 313 314 313 313 312 311 310 309 308 308 308 307 306 306 306 307 308 309 310 310 311 312 312 312 312 312 311 311 312 314 315 317 324 332 337 338 338 338 338 337 337 337 337 337 337 337 338 338 338 338 339 339 338 338 338 338
314 316 316 315 318 317 314 314 315 314 314 315 317 316 315 315 314 314 315 314 314 315 315 315 315 314 314 313 313 313 313 313 314 313 312 311 310 310 309 309 309 308 307 306 306 306 307 308 309 309 310 311 312 313 313 312 312 312 314 317 317 316 319 326 332 336 337 338 339 338 338 338 337 337 337 337 337 338 338 338 338 338 338 338 338 338
316 317 318 318 318 316 314 315 315 314 316 317 318 318 316 314 314 314 314 314 314 315 315 315 315 314 313 313 314 313 313 313 313 313 313 311 311 310 309 309 310 309 307 306 305 306 306 307 308 308 309 310 311 313 314 313 313 315 317 320 320 318 318 321 327 332 335 336 337 338 338 337 337 337 337 337 338 338 338 338 338 338 338 338 338 338
315 317 317 316 317 318 317 316 314 316 320 319 317 318 316 313 314 314 313 313 314 314 314 314 314 313 313 314 314 314 313 313 313 313 313 311 311 311 310 309 310 309 308 307 306 306 306 307 307 308 308 310 311 313 315 315 316 318 320 321 322 321 320 320 322 327 331 334 335 336 337 337 337 337 337 337 337 337 337 337 337 338 337 337 337 337
317 317 315 314 317 318 317 317 319 322 321 318 316 317 315 313 313 313 312 314 315 314 313 313 313 313 313 313 314 313 313 312 313 314 313 312 311 311 310 309 309 308 308 307 306 306 306 306 307 307 308 310 312 313 315 316 318 319 321 322 322 323 323 322 321 323 326 329 332 334 335 336 336 336 336 336 336 336 336 336 336 336 337 337 337 337
319 319 316 315 316 316 315 317 320 319 315 313 314 314 313 313 313 313 313 315 316 314 312 312 312 312 313 313 313 313 312 312 313 315 313 311 311 311 310 310 309 308 308 307 306 306 306 306 306 307 308 310 313 315 316 316 317 319 319 320 321 323 323 323 322 322 323 324 326 329 332 333 334 335 335 336 336 335 336 336 336 336 336 336 336 336
316 318 316 316 315 315 315 316 316 315 313 312 313 313 311 311 313 312 312 314 315 313 312 312 312 312 312 313 313 312 312 311 312 312 311 310 310 311 310 310 309 308 307 307 306 306 306 305 305 306 307 309 311 313 314 314 315 316 316 317 318 320 322 323 323 323 323 323 323 325 326 329 331 332 333 334 334 335 335 335 336 336 336 336 336 335
315 316 316 315 314 313 315 316 316 318 319 316 314 314 312 312 312 312 311 313 314 313 312 312 312 312 312 312 313 312 312 311 311 310 309 309 310 310 310 310 309 308 307 306 306 305 304 304 305 305 305 307 309 309 310 312 313 313 314 315 315 317 319 321 322 323 323 324 324 324 324 325 327 329 330 331 331 332 333 333 334 335 335 335 334 334
313 314 315 315 314 313 315 317 316 318 320 316 314 315 313 311 311 310 311 315 315 312 312 312 311 311 311 312 312 312 312 312 312 311 310 309 309 309 309 309 308 308 306 305 305 304 303 303 304 304 304 305 306 306 308 310 312 312 313 313 313 314 316 318 320 320 322 323 323 324 324 324 325 326 329 330 331 331 331 331 332 332 331 332 331 331
314 314 314 316 316 314 314 315 315 315 315 312 313 316 313 310 310 310 311 315 315 312 312 312 311 311 311 312 312 312 312 312 311 310 310 309 309 309 308 308 308 307 305 304 304 303 302 302 303 303 303 304 304 305 306 308 310 311 312 311 312 313 314 314 315 316 318 320 322 322 323 324 325 325 326 329 330 330 331 331 331 331 331 331 331 331
315 314 312 313 316 315 314 315 315 313 312 312 315 316 312 310 312 313 313 314 313 312 312 311 310 311 311 311 312 312 311 311 311 310 309 308 307 307 307 307 306 306 304 303 303 302 301 302 302 301 302 302 303 303 305 307 308 309 310 310 310 311 311 311 312 313 315 317 318 319 320 321 323 325 325 326 327 328 329 329 330 331 331 332 333 333
314 314 312 311 314 313 311 312 313 311 310 312 314 313 309 310 314 317 317 315 313 312 312 311 310 311 311 310 311 310 310 310 309 309 308 307 307 306 306 305 305 304 303 302 302 301 300 301 301 300 301 301 301 301 303 304 306 306 307 308 308 309 308 309 310 311 312 314 315 316 317 318 319 322 324 325 325 326 327 327 328 329 330 331 332 332
315 316 316 313 312 310 309 311 314 313 311 310 310 310 310 314 318 318 316 315 313 312 311 311 310 310 310 310 309 309 309 309 308 307 307 306 306 305 304 304 304 303 303 302 301 300 300 300 300 300 300 300 300 300 301 302 304 304 305 305 306 306 307 308 309 309 310 312 313 315 316 316 316 318 320 323 324 325 325 326 326 326 328 329 331 331
314 317 318 314 311 312 314 316 318 318 315 312 311 313 317 319 318 316 314 313 312 311 310 310 310 309 309 310 309 308 308 308 307 307 306 305 305 304 303 303 302 302 301 301 300 299 299 299 299 299 299 299 299 298 299 300 302 303 303 303 304 304 306 307 307 308 309 310 311 313 314 315 315 315 317 319 323 324 325 325 326 326 327 328 329 330
314 316 316 313 312 314 316 317 317 316 316 313 311 314 319 318 314 313 312 312 312 311 309 308 309 309 308 308 308 307 307 307 306 306 305 305 304 303 302 301 300 300 300 299 299 298 298 298 298 298 298 298 298 298 298 299 300 301 302 302 302 303 304 305 306 307 308 309 310 311 312 313 314 314 315 317 320 323 324 324 325 326 326 328 329 330
313 314 313 313 314 314 314 313 312 312 314 314 312 312 315 314 312 311 310 311 311 310 308 308 308 308 307 307 307 306 306 306 305 305 305 304 303 301 301 299 299 298 298 298 297 297 297 297 297 297 297 297 297 297 297 298 299 300 300 301 302 303 303 304 305 306 307 308 309 310 311 312 312 313 314 315 318 321 323 324 324 325 326 327 328 329
312 311 313 314 314 313 315 316 314 313 314 314 313 312 311 310 311 310 309 310 310 308 307 307 306 307 307 305 305 305 305 305 304 304 304 303 301 300 299 298 297 297 296 296 296 295 295 296 296 296 296 296 296 296 296 297 298 299 299 300 301 302 302 303 304 305 306 306 307 308 309 310 311 312 314 315 317 320 322 323 324 325 326 326 328 328
310 308 312 315 314 313 315 318 316 313 313 312 311 311 311 310 310 308 308 308 308 307 306 304 303 305 306 305 304 304 304 304 303 303 303 302 300 299 298 297 296 295 295 295 295 294 294 294 294 295 295 295 295 295 295 296 296 297 299 299 300 301 301 302 303 303 304 305 305 307 308 310 311 312 313 316 318 320 322 323 324 325 326 326 328 328
309 308 311 314 313 312 313 314 313 311 312 312 311 310 312 311 310 308 307 307 307 307 307 305 302 302 303 303 303 303 303 303 302 302 302 301 299 297 296 295 295 294 294 294 294 293 293 293 293 293 293 294 294 294 294 295 296 297 298 299 299 300 300 301 302 302 303 303 304 306 309 311 313 313 314 316 319 320 321 322 323 325 326 327 328 328
310 311 312 311 311 312 313 315 314 312 313 315 313 312 311 310 308 308 307 307 306 305 306 306 303 302 301 301 302 303 302 302 301 301 301 299 297 296 295 294 294 293 293 293 292 292 292 292 292 292 292 292 293 293 294 294 295 296 297 298 299 299 299 300 301 301 301 302 303 305 309 313 315 314 314 317 319 319 318 319 321 324 326 326 327 327
311 312 312 312 313 314 314 316 315 312 312 315 315 313 310 307 308 309 307 306 306 304 303 304 304 303 302 301 300 301 302 301 300 300 299 298 296 295 294 293 292 292 292 292 291 291 291 291 291 291 291 291 292 292 293 293 293 294 296 297 298 298 298 299 299 300 300 300 302 306 311 315 316 316 317 318 319 318 317 317 317 319 320 321 322 322
Wind_Speed
3 4 3 1 4 6 6 5 6 4 2 3 3 2 4 4 5 6 6 7 2 1 5 4 4 6 7 9 9 9 7 6 8 8 7 5 4 5 6 7 8 8 9 13 19 22 23 23 22 22 23 23 24 28 30 30 30 33 34 32 32 33 35 36 35 34 33 32 32 32 34 34 33 33 32 33 35 36 37 38 38 38 38 37 36 34
4 5 2 4 5 7 6 5 5 3 1 2 2 2 3 3 5 6 5 6 3 1 5 5 6 7 7 9 9 8 6 6 6 6 7 7 4 5 6 8 9 7 8 11 16 18 20 20 20 20 22 24 26 29 32 33 33 35 35 34 32 29 32 36 37 36 35 34 34 34 34 33 30 31 31 31 33 35 36 38 38 38 37 37 37 35
5 1 5 5 5 5 3 3 3 2 1 2 1 1 2 3 3 5 5 5 3 1 4 6 6 7 8 9 9 8 6 6 6 6 7 8 6 5 6 7 8 8 9 10 11 14 17 16 17 19 22 26 28 30 34 35 36 35 33 34 35 33 31 33 33 34 34 34 34 33 31 29 27 28 30 29 31 35 36 38 38 38 38 38 37 36
3 4 6 4 4 5 4 3 4 3 2 1 1 1 3 3 1 3 5 5 4 2 3 5 6 7 6 7 8 8 6 5 7 7 7 7 6 7 6 6 6 7 9 10 10 11 14 14 14 18 22 24 25 28 32 34 35 34 34 37 39 39 38 36 35 34 34 32 30 29 27 26 26 26 28 30 32 35 37 38 38 38 38 37 37 37
3 7 4 4 5 5 4 6 5 4 4 3 3 3 3 4 2 4 4 4 5 3 2 4 7 6 3 4 6 5 4 5 6 6 7 7 5 6 6 6 7 7 7 9 10 11 11 11 12 18 21 21 22 27 31 35 36 35 37 40 41 43 43 40 37 34 34 31 28 27 25 24 25 25 28 31 33 35 38 39 39 37 36 36 36 36
4 5 2 5 5 5 3 4 3 2 2 4 3 4 5 4 4 4 4 4 4 4 3 5 5 6 4 4 5 4 5 7 6 7 9 9 7 5 6 7 7 7 7 8 9 10 9 11 13 16 20 19 21 28 32 35 37 38 39 40 42 43 40 36 32 30 31 31 30 30 27 26 26 27 31 35 35 36 38 38 38 36 35 35 35 35
3 3 3 4 3 5 4 3 3 1 3 2 3 3 3 0 1 3 3 3 2 4 4 2 1 6 6 3 4 4 5 7 7 7 9 9 7 6 5 7 8 8 8 8 9 10 10 11 10 12 17 20 23 27 28 31 33 36 38 40 41 39 38 39 38 36 35 34 32 33 32 31 30 29 31 34 32 33 34 35 35 36 36 36 36 35
3 5 6 5 4 5 5 3 4 1 3 1 5 1 1 3 4 4 1 1 2 3 4 0 4 3 7 3 1 2 5 8 8 8 9 8 7 7 7 7 8 9 9 9 10 11 11 11 10 12 17 22 26 25 22 25 29 32 36 39 40 38 41 45 44 43 43 39 36 36 36 35 35 34 31 29 30 30 31 34 36 36 37 37 37 36
3 4 4 4 4 5 3 5 6 2 2 4 5 3 2 2 4 4 2 3 2 2 4 4 2 1 7 2 4 4 4 6 8 8 9 9 9 9 9 9 9 9 10 9 10 11 11 12 15 19 19 22 26 25 23 25 29 32 34 38 40 40 42 45 45 46 47 45 42 40 38 36 37 37 32 29 31 31 31 34 36 36 37 38 38 38
2 2 2 2 3 2 3 6 5 2 1 4 3 3 3 1 2 1 1 2 1 2 3 4 2 1 5 3 3 4 4 5 8 8 8 9 10 10 10 10 9 9 10 9 9 10 11 15 21 23 22 22 23 24 25 26 28 32 35 38 41 42 42 45 48 47 46 47 44 42 40 37 36 34 30 29 32 32 32 33 35 36 37 38 38 38
5 4 1 2 2 1 3 5 2 3 1 2 3 4 4 3 3 3 2 2 3 2 4 4 2 1 3 4 2 1 3 6 7 8 10 11 12 12 11 10 9 9 9 9 9 10 12 17 22 20 20 22 22 22 24 25 27 30 33 35 38 41 41 43 47 47 46 46 44 42 41 40 39 35 31 30 32 32 33 35 36 37 37 37 38 38
6 4 2 2 1 1 2 3 2 1 2 3 3 3 3 4 4 3 4 3 3 1 4 4 3 1 2 5 4 5 7 7 6 7 12 14 15 14 12 11 10 10 10 9 9 10 10 14 16 15 16 20 20 20 23 26 28 29 30 31 33 36 38 39 43 46 46 46 45 43 41 42 43 38 35 34 34 36 37 39 38 36 35 36 36 37
4 2 3 4 2 3 3 3 4 4 4 5 3 4 3 3 4 3 4 3 1 2 4 3 3 1 4 6 7 9 10 7 7 7 10 13 14 14 13 12 11 9 9 9 8 9 9 9 11 11 14 18 18 18 22 26 28 29 30 32 32 34 36 37 39 43 45 46 47 46 44 45 45 41 39 38 37 37 39 39 38 38 37 37 36 38
4 4 5 5 3 3 4 4 5 4 4 5 3 3 3 2 3 2 2 2 2 4 3 2 2 2 4 5 7 7 7 6 7 8 9 10 11 12 12 10 9 9 9 8 8 9 9 9 9 11 15 18 19 19 21 24 27 29 31 33 35 37 37 37 38 42 43 45 47 48 46 45 43 41 40 40 40 40 39 38 38 40 41 39 39 40
3 5 4 4 3 3 4 3 3 3 4 4 1 3 2 1 1 2 2 1 3 4 3 2 1 1 2 4 5 4 6 5 6 7 8 9 9 9 9 9 10 11 11 10 10 10 10 10 11 14 17 19 22 22 20 22 26 28 30 34 38 38 39 39 39 40 42 44 46 47 46 43 41 42 42 42 41 41 40 39 38 39 40 41 41 40
1 4 4 3 3 2 4 4 3 2 3 2 1 2 1 2 2 0 1 2 2 3 3 2 2 3 4 5 5 6 7 7 9 10 11 12 12 11 10 11 12 11 12 11 11 12 12 13 14 16 18 20 23 21 18 21 24 27 31 34 38 39 40 41 41 41 42 43 44 44 43 42 40 40 40 39 39 38 40 40 40 40 40 40 39 36
1 4 5 4 4 1 1 3 4 4 2 2 1 2 1 2 3 1 1 1 1 2 3 2 2 3 3 3 5 10 13 14 15 17 17 16 16 15 12 11 12 12 13 12 12 13 13 13 16 19 21 22 24 23 18 19 24 28 31 34 36 37 37 39 40 41 41 41 41 41 41 41 41 40 39 37 37 38 38 39 40 39 39 38 36 35
1 4 5 3 3 3 2 1 6 5 2 1 1 3 2 1 2 1 1 1 1 2 3 2 3 4 2 2 7 14 17 17 18 19 18 17 18 17 15 13 13 14 14 14 13 14 13 13 16 21 25 26 27 27 21 18 21 25 28 31 34 35 35 38 40 40 40 41 41 41 41 40 40 40 39 39 39 38 35 35 36 36 36 36 37 35
2 3 6 2 2 4 2 3 3 4 4 3 0 2 2 1 1 1 0 2 1 2 4 3 2 2 0 1 8 14 15 17 19 18 18 18 17 16 16 17 16 15 15 14 14 14 14 13 17 22 26 30 32 30 24 18 18 22 26 28 31 35 37 38 40 39 39 41 42 43 45 45 45 43 42 41 40 38 36 35 34 34 35 35 35 35
2 1 4 3 3 4 4 3 2 3 4 3 2 2 1 1 1 0 0 1 0 2 3 3 2 2 1 1 8 12 14 15 17 17 17 16 15 14 14 15 15 14 13 14 13 14 15 15 19 24 26 28 31 30 25 17 15 19 24 27 28 31 32 32 34 36 36 36 36 35 36 38 40 41 40 40 39 37 35 35 34 34 35 33 33 34
3 2 3 5 5 4 2 1 2 1 2 3 3 2 2 1 0 1 1 0 0 1 1 2 3 2 0 3 8 12 14 14 15 16 15 15 15 14 13 13 13 13 13 13 13 13 15 16 20 26 28 27 28 28 26 19 12 15 20 25 26 26 26 26 28 30 31 30 30 28 26 26 24 22 22 24 28 31 32 32 32 33 33 32 32 33
2 2 2 4 5 2 2 2 2 3 2 1 0 1 3 3 1 2 2 1 1 1 2 1 3 2 1 2 7 9 11 13 15 16 15 15 15 15 13 13 13 12 12 13 13 13 14 14 18 24 27 27 26 25 26 23 12 11 14 18 22 24 24 26 27 27 28 28 27 26 24 22 20 16 14 13 13 16 20 24 27 29 30 30 31 32
2 3 1 3 5 4 3 2 1 1 2 1 1 1 3 2 1 2 2 1 1 1 2 1 2 3 3 2 4 5 8 11 14 15 16 15 15 14 15 15 14 13 12 12 13 12 11 13 18 22 23 24 24 24 25 25 18 10 13 15 18 22 24 26 27 27 28 29 29 27 25 24 23 23 24 23 20 18 18 21 23 26 28 30 31 31
1 2 1 3 5 3 3 3 3 2 1 2 1 2 3 3 3 3 3 1 1 2 1 1 1 4 3 3 4 4 6 9 10 12 16 16 14 14 15 15 15 14 13 12 12 12 11 13 17 17 17 19 22 24 24 24 22 14 13 16 16 21 24 25 25 26 27 28 29 29 29 31 31 30 32 33 33 32 31 30 28 28 29 31 31 31
1 0 1 2 4 3 3 3 3 2 2 2 3 4 4 5 7 4 2 1 1 2 2 1 2 4 2 2 6 7 8 10 9 9 13 14 13 13 14 14 14 14 14 13 13 14 13 13 13 13 14 16 19 22 24 24 24 19 11 17 19 20 23 24 24 24 24 25 27 27 28 31 34 35 37 37 37 38 39 38 36 34 32 32 32 32
0 1 2 1 2 2 2 3 2 3 3 2 3 4 4 6 7 4 2 1 1 2 3 2 3 6 7 6 10 12 10 11 11 11 12 13 13 14 14 14 14 14 15 16 15 15 14 13 13 13 15 17 18 20 23 24 24 23 16 12 18 21 22 22 23 24 23 23 26 27 27 29 32 35 38 40 39 38 38 37 37 36 34 32 32 32
2 1 1 3 3 3 4 4 2 0 1 2 4 5 5 5 6 3 1 1 3 4 3 3 4 9 12 12 13 15 14 12 12 12 12 12 14 15 15 15 15 13 14 16 15 15 15 14 14 14 16 19 20 21 23 24 23 24 22 14 11 16 19 21 23 24 24 24 26 28 28 29 32 35 37 38 38 38 37 36 35 35 34 33 33 32
3 2 2 5 6 6 6 6 3 2 3 4 4 5 5 5 5 3 1 2 4 3 3 6 9 11 12 12 13 15 15 13 11 12 12 11 13 14 15 16 17 15 15 15 16 18 17 16 15 15 16 19 22 23 24 26 25 24 23 20 12 10 15 18 21 23 24 25 26 28 29 30 31 33 35 35 33 33 33 33 33 33 33 34 34 34
4 3 3 3 5 7 7 7 5 3 4 4 3 3 5 5 6 5 3 4 4 3 4 9 13 11 10 11 13 14 15 14 11 10 9 9 12 15 17 18 18 18 18 17 19 20 19 18 17 16 16 18 21 22 23 25 26 25 24 24 18 10 11 14 18 22 23 25 26 27 28 29 29 29 30 29 28 28 30 30 31 31 32 33 34 34
3 3 2 2 4 5 4 5 3 3 3 3 4 4 3 5 6 4 4 5 5 5 6 9 13 11 7 9 13 13 13 13 9 6 7 9 11 14 17 18 17 19 20 19 18 19 19 19 18 17 17 17 18 20 21 23 25 25 24 24 21 14 10 11 15 19 21 23 26 26 26 26 27 27 27 27 28 28 28 28 29 30 31 33 33 32
1 2 1 2 3 3 1 1 2 3 4 4 5 4 3 4 5 3 3 5 5 5 6 9 11 8 5 8 12 11 11 11 9 8 8 8 9 13 16 16 16 17 19 19 18 18 19 19 19 18 17 18 20 21 21 22 24 24 24 23 21 17 11 10 15 16 18 21 23 23 24 25 26 27 27 28 29 28 27 27 28 29 31 32 31 31
1 1 1 3 2 3 2 1 3 2 2 1 4 5 4 3 3 3 4 5 4 5 8 9 7 6 8 10 11 11 12 13 13 11 10 9 10 13 16 16 15 15 17 19 19 19 20 19 19 19 19 21 24 23 22 23 24 23 23 23 21 18 13 10 14 17 18 20 20 20 22 24 25 26 28 30 30 29 27 27 28 29 31 31 30 29
3 2 1 1 1 4 2 1 3 2 4 2 4 4 3 2 3 4 5 6 5 3 5 6 5 7 9 11 11 13 14 14 13 11 9 10 11 13 15 16 15 14 15 18 19 19 19 17 18 20 22 24 26 25 26 26 24 23 24 23 21 18 15 11 12 16 19 20 20 20 22 24 25 26 27 28 27 26 26 27 28 30 30 30 29 29
2 3 1 1 1 3 4 4 3 3 1 4 5 4 5 2 3 4 5 7 6 2 2 4 6 8 10 10 11 13 13 13 12 10 7 8 10 12 13 15 15 14 14 15 17 19 18 17 19 23 26 28 28 27 27 27 25 26 26 23 20 17 15 12 11 13 17 19 21 22 23 24 25 27 28 27 25 24 26 28 30 32 32 31 30 31
2 3 1 1 1 2 3 5 5 1 5 6 4 4 4 4 3 4 6 8 5 1 5 7 7 9 10 10 10 11 11 12 11 8 7 8 10 11 13 14 15 16 15 15 16 18 18 19 21 24 28 30 29 26 24 26 26 25 24 22 19 17 15 12 11 10 12 15 18 21 23 24 24 26 27 27 26 26 27 30 31 31 32 32 32 34
4 3 2 1 1 1 2 3 1 4 6 4 4 4 2 0 1 2 5 5 3 1 5 7 7 9 10 10 10 10 11 11 8 4 5 9 11 12 13 13 14 15 15 16 17 17 19 22 24 25 28 30 27 22 19 21 22 21 22 22 20 18 16 14 13 11 11 12 14 17 20 22 24 25 25 24 24 25 27 29 30 31 31 31 32 33
5 4 1 2 1 1 1 1 2 3 4 3 2 2 0 1 2 2 2 3 3 2 4 5 8 10 10 9 10 11 11 9 5 4 6 11 13 13 13 13 14 15 15 18 22 23 24 27 28 28 30 30 27 21 17 17 19 19 20 22 21 19 17 16 16 14 12 11 11 12 15 18 21 24 25 24 24 25 27 28 29 29 30 31 31 33
4 4 3 2 1 2 2 2 3 3 3 4 5 4 4 4 5 4 2 3 3 3 4 5 7 10 10 9 10 11 10 8 7 7 9 12 13 13 13 13 15 17 18 21 25 27 28 30 29 29 31 29 27 25 22 20 20 18 18 19 20 19 18 17 18 17 15 13 12 11 12 14 17 20 22 23 24 26 27 29 29 29 29 30 31 33
4 1 3 2 1 0 2 0 1 2 4 6 7 7 5 4 5 4 1 3 4 4 5 5 7 9 9 9 10 9 7 7 6 7 10 13 13 13 13 13 15 18 21 23 24 26 28 29 28 29 30 28 28 30 28 24 21 17 16 18 19 19 17 16 18 19 18 18 17 15 14 14 15 17 19 21 23 25 26 28 29 29 29 30 32 33
4 3 2 2 2 2 3 2 2 4 4 5 6 7 4 3 6 5 2 5 5 5 6 4 6 8 8 8 9 6 6 6 6 8 11 12 12 12 13 14 15 17 21 24 26 27 28 27 26 28 29 28 31 33 30 26 22 18 16 17 17 16 17 18 19 20 20 20 19 18 17 16 16 17 18 19 20 21 22 24 26 27 28 30 32 33
2 1 1 2 2 3 4 2 3 4 4 5 6 6 3 3 5 3 2 6 4 5 6 4 5 7 6 7 7 5 5 6 7 9 10 10 11 12 13 17 18 19 20 23 25 27 27 25 24 26 27 28 30 32 29 24 21 19 18 17 16 16 18 21 23 23 21 20 19 19 19 18 18 18 19 20 20 20 20 20 21 22 24 25 27 28
1 0 0 2 2 2 2 2 3 4 4 5 4 3 2 3 1 3 5 4 3 5 6 4 5 6 5 5 5 5 6 7 8 9 10 10 11 11 13 16 18 19 20 22 24 26 26 24 25 26 26 28 30 30 28 24 20 19 19 18 17 19 21 23 24 24 23 21 21 21 21 20 20 20 21 22 22 22 22 21 19 20 20 21 23 25
3 2 1 2 3 1 1 1 1 3 4 4 3 0 2 2 3 4 3 2 3 4 4 5 4 5 4 5 5 6 7 7 8 9 9 10 10 10 12 15 16 18 21 22 25 27 26 24 24 25 25 27 28 29 28 24 21 20 20 20 22 24 24 23 24 24 24 23 22 22 23 23 22 22 22 23 25 25 25 24 22 21 21 20 21 23
3 4 2 2 3 2 2 2 3 4 5 4 4 3 3 4 4 4 3 3 4 3 3 3 4 5 5 5 6 7 6 6 8 9 9 9 10 10 11 14 16 18 21 21 24 27 26 23 24 27 27 27 28 29 28 25 22 20 21 24 27 28 26 24 24 23 23 24 23 23 23 24 24 24 24 25 26 27 28 27 25 24 23 21 21 21
4 4 3 2 2 3 4 6 6 4 4 4 5 5 5 4 3 4 5 3 3 3 2 2 4 6 5 4 6 6 5 6 7 8 8 9 10 10 11 13 17 19 21 22 24 26 26 24 25 28 29 29 30 30 30 28 25 22 24 27 29 28 27 27 25 23 23 23 24 24 24 24 25 26 27 27 27 28 29 29 27 25 24 22 20 20
3 3 3 2 2 3 4 4 4 3 4 4 4 5 4 4 3 4 5 3 4 4 2 2 4 5 5 4 4 5 5 6 7 7 8 8 9 10 11 13 17 20 22 24 25 27 27 25 25 27 28 30 33 32 32 31 28 25 27 30 30 28 27 26 25 24 23 23 24 25 24 24 26 28 29 28 29 30 31 31 30 28 25 23 21 21
2 2 2 2 1 2 3 3 3 4 4 4 4 4 4 4 4 3 4 4 4 3 3 4 4 4 4 3 4 5 6 6 6 7 7 7 8 10 10 12 16 19 21 22 24 27 27 25 25 26 26 29 34 34 33 33 32 30 32 33 32 31 29 26 24 25 24 24 25 25 24 25 28 29 29 29 30 31 31 31 30 28 26 23 21 20
1 1 2 3 3 3 4 6 5 5 5 5 4 4 4 4 4 3 3 3 3 3 3 3 2 3 3 4 4 5 5 6 6 6 6 6 7 8 10 13 16 18 21 23 25 26 26 24 24 25 24 26 32 35 34 34 34 34 35 35 35 34 31 27 25 24 24 24 24 24 25 26 28 29 28 29 30 31 31 30 28 27 27 27 24 21
2 1 2 2 2 3 5 6 4 4 6 6 5 5 5 4 4 2 1 1 0 1 3 3 3 3 3 4 4 4 5 6 6 6 6 6 6 7 10 15 17 18 20 22 24 24 24 23 24 25 23 25 29 32 33 32 33 35 35 36 36 35 32 29 26 23 22 22 22 22 24 26 28 29 29 28 28 27 26 25 25 23 22 22 21 21
2 3 2 2 2 4 5 5 3 1 4 6 5 6 6 5 4 3 3 2 2 2 3 4 5 4 4 4 5 4 4 5 6 6 5 5 6 9 13 15 17 19 21 22 24 25 25 24 24 24 24 26 30 31 31 31 32 33 34 34 34 32 30 29 26 24 25 25 24 23 22 23 24 25 25 25 23 21 17 13 14 14 13 13 13 13
5 6 5 4 5 5 7 7 5 3 4 6 5 5 5 4 5 5 4 4 2 1 2 2 3 4 5 6 6 5 4 4 6 7 6 6 8 12 15 15 15 17 20 22 23 25 25 26 26 25 26 29 31 31 31 32 33 35 35 35 34 31 29 27 27 28 30 31 29 24 14 16 20 19 20 20 19 20 18 14 11 8 6 5 6 4
Wind_Direction
54 52 25 317 293 295 286 240 226 248 236 268 292 256 261 270 277 272 266 283 316 314 277 262 270 279 281 285 281 284 311 316 297 304 306 287 259 269 289 292 294 292 284 292 295 290 279 266 251 232 214 203 197 195 193 192 194 197 198 194 193 200 201 199 197 196 196 197 199 203 206 208 209 210 210 211 214 215 216 216 215 214 214 214 213 210
52 59 325 253 259 281 279 232 226 264 219 234 262 271 291 257 253 266 269 295 323 261 273 294 310 290 274 277 276 281 296 286 273 278 292 292 264 256 275 283 289 293 293 299 302 301 293 277 257 234 210 198 192 189 190 192 195 198 197 192 190 196 202 203 200 196 197 200 201 203 206 206 206 208 210 212 214 216 218 218 217 217 215 215 214 212
21 352 273 266 281 304 301 161 161 260 136 139 172 118 303 267 264 290 292 305 328 309 286 315 322 290 272 269 269 269 263 258 250 239 262 278 273 266 266 274 289 301 304 303 305 309 304 287 258 231 210 201 195 190 191 193 195 196 193 189 190 197 205 210 207 200 199 203 205 206 207 205 204 208 211 214 217 217 219 220 219 219 217 216 215 214
348 269 273 304 346 353 344 20 65 29 18 102 157 139 277 289 336 295 299 319 330 302 272 306 304 281 277 277 274 267 252 259 264 249 252 257 252 255 262 273 280 287 296 300 305 310 310 297 262 232 217 208 198 192 191 192 192 191 190 191 195 200 204 211 213 206 202 205 208 209 209 205 204 209 213 216 219 219 219 220 220 219 218 217 217 217
268 260 284 7 18 29 358 337 16 48 357 309 231 200 249 291 260 234 280 317 334 328 316 340 315 291 274 260 270 287 295 290 292 296 294 284 267 268 285 287 273 266 272 285 299 305 309 302 269 242 231 216 201 197 195 193 192 191 191 192 196 201 202 205 209 206 203 205 206 207 207 203 204 209 213 215 217 217 217 218 218 218 217 217 219 219
267 257 323 24 8 37 48 328 320 128 358 317 258 210 228 263 263 270 318 346 7 337 327 21 344 290 252 234 261 294 304 295 316 332 307 298 305 314 314 300 292 285 272 271 284 293 299 299 282 257 241 225 210 207 203 199 196 194 195 193 193 197 196 196 202 205 207 208 205 202 200 196 199 205 209 212 212 211 213 215 215 216 216 217 218 219
284 302 39 38 7 30 40 337 301 123 68 344 277 226 214 228 315 303 334 9 10 288 287 69 101 275 279 273 271 280 295 298 315 322 301 301 316 317 304 293 296 298 292 292 292 294 295 293 289 265 246 234 223 218 210 203 199 196 196 194 191 191 186 188 199 206 210 214 209 203 202 200 202 207 211 211 211 211 213 213 214 215 216 217 219 219
296 333 24 33 28 36 30 352 309 305 95 294 287 300 51 15 325 282 247 200 229 274 308 259 145 265 286 296 13 331 327 313 309 310 305 309 309 301 294 287 288 287 288 296 297 297 296 290 285 268 254 243 234 227 214 204 201 196 195 193 190 188 185 190 201 205 206 211 211 207 206 205 207 212 214 211 210 214 215 214 215 216 216 217 219 220
301 337 4 21 33 39 11 305 288 277 125 260 278 300 298 309 289 263 216 221 239 26 316 278 124 258 274 312 19 348 333 312 306 306 304 307 304 299 295 289 287 283 281 282 283 287 289 289 286 277 268 256 243 229 215 209 203 197 195 193 191 190 188 193 201 203 203 207 208 208 209 208 209 212 212 208 209 214 216 216 216 216 217 218 219 221
292 288 269 91 68 27 307 290 284 96 85 269 278 304 288 320 332 318 174 204 25 39 263 272 54 268 277 322 349 347 4 323 312 309 300 299 297 294 292 290 288 285 285 283 281 283 283 286 288 285 279 272 257 235 220 211 203 199 197 195 194 193 190 191 196 199 203 205 206 208 210 211 211 210 208 206 208 212 215 217 217 216 217 218 218 220
294 296 257 115 110 250 281 296 279 121 88 329 16 344 325 2 15 26 46 93 65 349 263 288 11 72 301 300 268 0 351 307 305 312 311 311 306 301 297 295 292 288 289 291 293 291 288 292 296 292 280 274 268 248 228 212 203 201 201 200 198 196 193 192 193 195 201 204 206 209 209 210 212 208 203 203 205 208 212 216 218 217 217 217 218 219
333 354 344 289 275 333 338 324 313 332 0 31 45 0 343 348 0 18 0 38 75 311 258 271 318 136 242 273 272 293 298 299 311 315 315 315 312 309 306 305 302 295 292 294 296 294 295 303 308 305 288 278 272 254 234 219 207 203 203 203 201 199 198 196 195 195 199 203 207 210 210 211 212 209 204 203 205 206 209 214 217 217 216 216 217 218
336 323 313 311 335 24 19 350 328 332 2 22 27 29 33 3 4 11 341 2 84 254 226 229 300 252 237 264 271 281 295 317 327 318 315 313 310 311 312 311 308 304 303 300 299 299 301 306 307 307 301 294 282 259 238 225 212 204 202 200 200 202 202 200 198 197 199 202 206 209 211 212 212 209 205 205 207 208 210 212 212 213 214 214 215 216
340 311 345 17 0 15 48 29 342 322 350 0 6 47 56 58 21 341 300 332 297 271 244 226 271 279 287 277 254 270 301 322 326 321 315 309 307 307 304 305 315 327 331 322 313 310 307 306 304 300 298 299 293 274 249 229 215 205 201 197 198 203 204 202 200 200 200 203 206 208 210 213 211 207 206 207 209 210 211 213 212 212 212 213 215 216
5 314 343 28 333 350 33 18 309 288 324 341 147 122 96 127 53 299 258 284 283 288 299 289 247 208 261 277 273 301 314 323 334 325 315 310 308 309 309 323 341 345 344 336 327 320 311 307 305 301 299 299 299 287 262 237 219 206 200 197 197 200 202 202 202 201 202 205 207 209 210 213 213 209 208 210 211 211 211 213 214 215 214 215 216 217
38 276 266 308 309 20 14 325 309 327 333 322 150 97 48 180 160 275 242 231 269 311 299 273 231 213 229 278 314 338 336 347 350 338 338 337 334 337 339 343 347 342 337 335 331 325 319 317 315 311 307 306 307 301 272 243 226 210 202 199 198 200 200 201 201 202 204 206 208 209 211 214 216 213 211 211 212 212 212 213 214 216 218 218 218 217
36 276 272 320 336 44 350 324 34 40 320 291 354 0 323 156 130 79 285 272 22 350 287 266 269 285 308 310 337 358 354 353 352 346 347 343 339 342 342 343 341 334 331 330 326 323 323 322 322 322 319 315 316 314 291 254 235 221 210 203 201 201 200 200 202 203 205 205 207 209 211 213 215 215 213 212 213 214 214 214 214 216 219 220 220 219
130 280 288 334 329 287 264 55 63 44 4 52 8 325 336 78 99 91 268 300 348 267 278 295 282 302 349 320 345 2 356 347 346 344 342 340 341 340 335 336 335 328 325 324 323 323 324 324 323 325 326 322 321 320 308 275 249 234 223 213 205 202 201 201 203 204 205 205 205 208 211 213 215 216 215 214 215 217 216 216 216 216 219 221 222 221
122 301 295 269 271 301 344 70 48 1 22 87 177 322 21 14 331 55 119 292 287 260 288 299 272 293 333 316 350 358 351 341 339 338 338 338 339 335 329 330 331 329 326 324 326 324 323 323 322 323 326 326 326 327 323 300 264 243 232 224 214 207 204 202 203 204 204 204 204 207 210 213 215 216 216 215 216 217 217 218 219 220 222 223 223 222
96 31 285 286 335 342 8 54 33 335 359 35 24 20 62 220 269 350 229 300 254 251 290 310 329 338 295 338 353 350 344 340 335 333 334 333 330 327 324 324 325 326 322 319 321 320 318 318 318 320 323 324 325 331 336 319 274 245 233 226 220 215 210 203 202 203 205 205 205 207 211 214 216 217 217 217 215 215 216 218 220 222 225 226 225 224
67 85 251 301 353 15 359 16 98 136 312 342 6 2 323 305 52 265 248 154 136 221 254 299 308 296 244 0 351 346 343 341 334 330 328 325 324 322 320 318 317 318 317 315 315 315 314 314 316 318 319 321 323 332 344 337 285 242 228 221 216 214 209 201 199 200 202 204 206 208 209 210 215 221 225 225 221 217 216 217 220 224 227 228 229 227
104 143 216 305 337 353 283 268 137 156 206 293 325 310 324 322 299 280 271 154 166 226 202 245 285 259 176 359 340 340 341 339 337 332 325 322 321 319 318 316 314 312 312 312 311 311 311 311 315 316 316 319 323 330 343 343 312 242 217 209 205 202 199 197 196 195 195 195 197 200 202 201 203 210 226 243 248 237 227 222 221 224 228 231 232 231
151 123 97 296 286 288 290 308 40 168 186 143 171 244 322 321 300 293 295 274 200 226 214 209 286 258 218 242 306 331 338 339 340 334 328 323 315 315 318 317 315 313 309 309 307 308 308 308 311 313 312 316 321 326 335 341 332 274 222 202 195 194 195 197 197 197 197 197 197 197 199 204 209 214 220 224 232 243 246 239 232 229 229 233 235 234
124 87 69 278 280 317 356 1 354 333 63 79 322 311 338 345 333 287 271 296 291 244 222 170 264 265 241 240 276 311 329 332 334 333 332 327 314 310 315 318 322 320 316 317 314 311 310 309 311 312 312 314 320 325 328 334 337 314 244 216 204 199 199 199 198 198 200 202 204 204 205 210 214 216 218 215 216 224 230 231 231 231 231 233 236 237
238 60 112 310 316 343 13 353 327 324 38 47 291 309 348 347 340 321 282 318 273 242 239 205 250 275 273 300 308 319 334 330 326 331 333 329 321 317 317 321 325 325 325 330 329 323 318 314 313 312 311 312 314 320 323 325 332 330 278 229 221 215 211 208 205 205 206 206 208 207 208 212 211 211 213 213 214 219 221 219 221 225 227 230 234 236
189 263 122 78 343 324 319 324 311 316 356 354 292 310 344 349 349 344 295 279 280 284 284 245 255 293 310 329 319 322 334 328 322 328 331 330 330 328 327 327 328 330 332 334 334 331 324 317 313 308 308 311 311 313 320 321 324 331 322 259 230 225 221 218 216 215 213 211 210 209 209 209 207 206 209 211 211 214 217 217 218 219 220 225 230 234
82 333 200 176 191 221 247 252 226 187 325 304 298 317 336 342 342 338 273 297 309 303 292 271 284 304 316 329 327 325 329 325 323 326 328 337 339 334 332 330 330 333 334 334 334 333 329 322 315 310 307 309 311 313 316 318 319 326 332 316 256 230 222 220 217 214 210 208 209 211 211 211 210 208 209 210 210 212 216 219 220 219 219 222 227 231
93 301 247 195 216 232 242 257 251 160 211 241 275 318 334 329 331 336 291 286 306 310 311 314 316 314 317 324 325 323 324 325 326 322 323 339 342 337 335 330 332 337 335 335 336 333 332 328 319 314 309 308 312 315 316 318 319 322 328 331 313 250 222 216 212 208 206 205 205 208 212 215 216 213 211 211 212 213 215 218 222 222 221 221 224 229
118 263 236 180 240 248 247 265 261 210 215 221 235 296 336 335 327 324 297 290 307 307 299 312 316 312 311 321 325 323 323 323 321 312 314 332 339 341 339 332 335 343 340 337 337 333 331 330 324 317 311 307 309 314 316 316 318 320 324 329 327 295 239 219 209 205 204 204 206 209 211 214 217 217 215 213 214 215 215 217 221 224 224 223 224 227
121 252 215 173 275 264 237 253 245 208 216 211 226 259 332 332 311 309 307 301 291 264 272 306 313 306 308 325 325 320 318 318 314 304 315 328 333 339 341 335 337 345 343 337 336 332 329 328 326 320 314 308 306 310 315 313 312 315 317 320 323 313 274 234 216 208 203 205 209 211 211 213 217 218 217 213 213 215 216 215 218 221 223 224 225 227
140 255 175 132 316 308 199 213 287 238 209 208 238 265 310 324 319 329 316 296 287 282 299 315 314 308 319 329 322 316 319 327 332 327 327 330 329 335 341 337 336 343 344 339 335 332 329 327 325 323 318 311 307 307 310 310 310 312 314 314 317 317 303 256 231 221 214 214 215 213 211 213 216 218 219 217 213 213 214 214 215 217 221 223 224 226
161 272 0 76 354 297 192 182 308 290 146 196 272 276 294 319 333 323 298 288 298 320 325 325 324 320 325 326 323 323 329 337 341 336 330 330 332 338 341 336 335 342 343 340 336 331 328 326 325 323 319 313 309 306 306 308 310 311 312 314 313 315 314 279 243 232 227 226 224 217 212 212 213 215 216 215 211 208 210 212 212 215 218 221 221 223
157 173 310 81 304 276 249 324 331 52 68 335 264 226 219 271 292 287 291 291 294 321 333 325 320 314 317 325 330 333 336 338 337 334 329 329 332 337 339 334 335 342 342 338 336 330 327 327 324 320 316 312 308 303 301 304 306 307 309 313 313 310 308 294 260 240 234 233 230 225 218 213 211 212 215 215 211 207 208 210 212 214 217 219 220 222
145 142 174 215 235 273 300 337 22 56 32 261 236 190 179 208 265 275 297 293 284 316 342 304 301 309 318 330 331 330 332 328 323 322 324 330 331 332 336 336 336 339 339 336 333 330 328 328 325 321 317 313 307 302 302 303 305 307 309 312 316 313 307 302 282 253 240 236 233 232 228 222 217 216 219 220 216 213 214 214 215 217 218 219 220 222
140 142 168 228 222 268 319 15 39 357 241 242 264 248 205 193 218 249 281 279 259 315 333 313 312 317 323 330 326 322 319 315 315 314 316 330 334 332 335 339 339 339 339 337 334 331 331 331 328 323 320 316 309 300 299 304 308 312 314 314 315 317 313 308 297 275 257 246 239 236 233 231 228 225 224 222 218 216 217 219 220 221 219 219 220 221
150 150 165 207 218 272 353 62 101 251 253 270 301 286 240 308 278 265 288 277 227 298 323 313 316 320 322 324 325 323 316 310 306 294 306 332 338 337 337 339 341 341 338 337 334 332 332 332 328 325 324 325 321 309 304 313 319 321 320 317 315 315 314 309 302 290 277 266 255 245 237 233 232 231 229 225 219 216 217 218 220 221 219 218 219 221
150 148 177 239 216 168 174 222 251 303 324 317 293 296 275 242 224 214 279 271 225 244 295 309 320 324 323 323 326 325 318 315 319 324 340 344 339 336 336 337 340 342 339 337 336 334 335 334 332 331 333 334 336 334 330 335 338 333 326 321 320 317 312 305 297 289 281 275 269 260 249 239 234 233 231 225 219 216 217 218 219 219 218 217 218 220
140 165 176 212 245 112 96 311 325 356 325 259 246 268 265 225 198 175 199 259 253 273 310 326 327 324 322 323 327 328 325 333 344 341 344 342 335 334 337 336 338 341 339 338 337 337 338 337 336 339 339 337 339 341 341 344 347 343 335 328 325 321 314 304 298 295 289 283 278 272 264 252 242 238 233 227 223 221 220 221 221 221 219 218 218 220
80 91 132 142 289 93 115 154 233 224 249 240 239 259 265 219 181 150 122 272 265 300 332 339 326 320 321 324 329 334 338 347 345 334 333 334 333 336 338 335 336 340 340 339 339 339 338 336 338 343 345 344 343 342 343 345 346 346 342 335 330 325 318 313 310 307 301 294 288 281 273 264 256 248 240 232 229 228 227 226 226 225 222 222 224 226
59 38 107 166 238 207 151 169 226 232 243 233 231 254 262 169 134 93 7 271 265 314 336 338 322 314 317 326 332 342 346 340 329 320 322 326 329 333 336 335 336 339 340 339 340 341 339 339 344 348 348 348 346 343 342 344 344 344 343 339 334 329 325 321 318 312 303 296 293 288 279 270 261 255 249 242 237 234 232 232 230 226 223 224 229 232
40 23 145 173 195 185 172 209 266 263 246 228 231 244 227 124 91 68 261 247 274 324 319 313 312 307 312 330 335 338 331 316 308 309 314 323 329 332 337 337 337 339 340 338 340 343 342 343 349 351 349 349 348 345 343 344 344 343 341 339 336 331 326 322 318 314 306 297 292 287 282 276 266 257 254 251 248 244 241 238 236 231 227 227 230 233
172 25 245 152 153 166 167 201 291 290 246 212 219 233 154 106 70 236 227 240 291 308 302 303 298 293 305 321 318 311 308 306 308 314 320 330 333 332 336 338 338 339 341 341 345 348 346 345 349 351 350 351 351 348 345 344 344 343 341 338 334 329 325 321 317 314 308 299 290 282 279 277 272 264 257 254 254 253 250 248 247 245 240 235 231 230
168 157 244 207 180 146 76 75 335 284 244 199 182 251 108 147 216 222 222 282 277 267 286 294 284 287 304 311 306 306 305 308 319 325 326 330 333 333 337 339 339 339 340 343 347 350 349 347 348 349 350 351 352 350 348 346 345 344 342 337 332 329 325 320 317 312 306 299 290 281 275 272 270 267 261 255 252 252 252 251 249 249 246 238 231 229
187 162 201 228 187 137 127 193 214 227 230 201 178 201 215 207 199 172 170 251 268 259 275 286 288 296 303 304 306 307 307 316 326 328 328 331 334 335 337 340 341 339 339 343 346 347 349 349 347 346 348 352 353 352 352 350 345 343 342 337 333 330 327 322 318 310 302 295 288 280 274 269 267 266 262 256 250 248 248 249 248 247 247 242 234 229
219 184 177 211 204 172 190 220 225 222 232 220 202 210 229 241 219 166 173 220 253 247 262 295 300 305 311 312 308 306 314 326 329 327 330 332 332 334 337 340 341 340 341 344 346 348 349 350 348 345 345 350 354 354 354 353 348 342 341 338 334 331 327 323 319 311 301 293 285 279 273 267 264 262 259 254 247 241 240 241 241 240 241 239 234 229
241 177 147 178 253 258 250 246 237 236 250 244 228 224 231 251 246 174 168 204 235 240 268 286 282 299 313 313 312 315 320 328 329 327 330 332 331 335 338 340 342 344 345 345 347 348 349 350 351 347 345 348 354 355 354 353 350 344 340 338 336 333 328 323 319 312 302 292 285 279 272 265 260 257 254 250 244 239 237 235 233 232 232 232 230 229
289 169 161 190 236 271 278 271 238 225 238 246 252 258 248 246 246 196 176 203 231 246 267 266 268 292 305 319 333 323 313 326 335 330 333 338 334 335 338 340 342 345 346 345 346 349 351 353 352 350 346 346 351 353 353 352 351 347 344 342 341 338 333 327 321 313 304 295 287 279 270 261 254 249 246 242 237 234 234 234 230 226 223 223 224 224
259 183 211 210 185 187 244 261 256 253 260 254 242 244 233 224 231 221 203 218 233 252 265 267 284 309 318 336 335 314 311 334 343 334 334 337 333 335 338 339 341 344 345 347 349 351 353 353 351 349 347 347 349 350 350 351 350 348 347 346 344 343 339 333 326 317 309 302 292 280 269 258 249 242 237 233 229 226 227 230 229 224 221 221 222 222
166 205 220 200 213 271 281 276 280 294 293 279 245 236 235 223 217 208 189 201 41 3 332 331 335 320 318 328 323 321 336 343 339 336 338 336 336 339 338 337 339 343 346 348 350 352 353 352 350 347 345 347 350 350 349 349 350 351 351 349 347 346 342 335 330 324 318 313 303 289 273 257 243 233 228 225 221 217 218 224 226 226 225 223 222 224
174 215 201 174 244 271 264 246 214 231 276 268 241 230 228 210 183 155 131 116 65 15 335 325 327 328 338 344 342 347 350 338 335 341 341 337 340 340 338 338 341 344 348 349 350 352 354 353 350 346 343 345 350 351 349 350 351 352 353 351 351 349 344 339 340 340 337 332 322 305 280 250 231 223 220 218 210 198 193 203 216 220 219 213 211 218
202 204 183 181 213 234 238 229 198 180 241 251 228 213 213 189 156 150 155 156 155 260 260 279 320 335 343 347 352 359 352 335 339 344 339 338 345 345 342 343 345 346 348 350 351 351 351 351 351 348 345 345 347 348 350 352 353 354 354 354 354 354 351 352 355 353 347 338 330 322 288 226 209 206 204 199 187 171 152 128 114 116 128 156 168 170